| time (UTC) | temp C | wind direction | speed KPH | gust KPH | rain 1hr cm | rain 24hr cm | rain mn cm | humidity % | barometer mb |
| 20260903205736 | 17 | 59 | 1.6 | 11.3 | 0.00 | 0.15 | 0.15 | 70 | 1012.1 |
| 20260903205236 | 17 | 165 | 4.8 | 11.3 | 0.00 | 0.15 | 0.15 | 70 | 1012.1 |
| 20260903204731 | 16 | 98 | 1.6 | 4.8 | 0.00 | 0.15 | 0.15 | 71 | 1011.8 |
| 20260903204227 | 17 | 203 | 3.2 | 4.8 | 0.00 | 0.15 | 0.15 | 70 | 1011.8 |
| 20260903203723 | 17 | 89 | 3.2 | 12.9 | 0.00 | 0.15 | 0.15 | 71 | 1012.1 |
| 20260903203218 | 17 | 115 | 1.6 | 11.3 | 0.00 | 0.15 | 0.15 | 69 | 1011.8 |
| 20260903202712 | 17 | 105 | 0.0 | 1.6 | 0.00 | 0.15 | 0.15 | 68 | 1011.8 |
| 20260903202208 | 17 | 124 | 3.2 | 16.1 | 0.00 | 0.15 | 0.15 | 68 | 1011.8 |
| 20260903201707 | 17 | 179 | 14.5 | 20.9 | 0.00 | 0.15 | 0.15 | 67 | 1011.3 |
| 20260903201202 | 18 | 66 | 6.4 | 6.4 | 0.00 | 0.15 | 0.15 | 66 | 1011.3 |
| 20260903200656 | 18 | 108 | 1.6 | 12.9 | 0.00 | 0.15 | 0.15 | 66 | 1011.3 |
| 20260903200152 | 18 | 84 | 3.2 | 24.1 | 0.00 | 0.15 | 0.15 | 66 | 1011.3 |
| 20260903195647 | 18 | 71 | 3.2 | 17.7 | 0.00 | 0.15 | 0.15 | 66 | 1011.3 |
| 20260903195143 | 18 | 192 | 8.0 | 11.3 | 0.00 | 0.15 | 0.15 | 64 | 1011.3 |
| 20260903194643 | 18 | 120 | 6.4 | 11.3 | 0.00 | 0.15 | 0.15 | 63 | 1011.3 |
| 20260903194137 | 17 | 150 | 9.7 | 14.5 | 0.00 | 0.15 | 0.15 | 67 | 1011.3 |
| 20260903193633 | 17 | 168 | 11.3 | 20.9 | 0.00 | 0.15 | 0.15 | 70 | 1011.0 |
| 20260903193128 | 18 | 91 | 4.8 | 17.7 | 0.00 | 0.15 | 0.15 | 68 | 1011.0 |
| 20260903192625 | 18 | 149 | 6.4 | 9.7 | 0.00 | 0.15 | 0.15 | 67 | 1011.3 |
| 20260903192120 | 18 | 111 | 12.9 | 22.5 | 0.00 | 0.15 | 0.15 | 66 | 1011.0 |
| 20260903191616 | 17 | 112 | 3.2 | 24.1 | 0.00 | 0.15 | 0.15 | 68 | 1011.0 |
| 20260903191111 | 18 | 101 | 6.4 | 14.5 | 0.00 | 0.15 | 0.15 | 67 | 1011.0 |
| 20260903190610 | 17 | 161 | 9.7 | 17.7 | 0.00 | 0.15 | 0.15 | 69 | 1011.0 |
| 20260903190105 | 16 | 127 | 4.8 | 17.7 | 0.00 | 0.15 | 0.15 | 71 | 1011.0 |
| 20260903185600 | 17 | 106 | 6.4 | 14.5 | 0.00 | 0.15 | 0.15 | 70 | 1011.0 |
| 20260903185056 | 17 | 115 | 11.3 | 22.5 | 0.00 | 0.15 | 0.15 | 70 | 1011.0 |
| 20260903184552 | 17 | 181 | 6.4 | 14.5 | 0.00 | 0.15 | 0.15 | 70 | 1011.0 |
| 20260903184047 | 17 | 90 | 9.7 | 20.9 | 0.00 | 0.15 | 0.15 | 70 | 1010.7 |
| 20260903183546 | 17 | 127 | 8.0 | 17.7 | 0.00 | 0.15 | 0.15 | 69 | 1010.7 |
| 20260903183041 | 17 | 205 | 12.9 | 17.7 | 0.00 | 0.15 | 0.15 | 70 | 1010.7 |
| 20260903182539 | 17 | 156 | 12.9 | 22.5 | 0.00 | 0.15 | 0.15 | 70 | 1010.7 |
| 20260903182037 | 16 | 153 | 3.2 | 25.7 | 0.00 | 0.15 | 0.15 | 73 | 1010.7 |
| 20260903181534 | 16 | 181 | 19.3 | 25.7 | 0.00 | 0.15 | 0.15 | 72 | 1010.7 |
| 20260903181034 | 16 | 181 | 11.3 | 24.1 | 0.00 | 0.15 | 0.15 | 74 | 1010.7 |
| 20260903180530 | 16 | 296 | 6.4 | 24.1 | 0.00 | 0.15 | 0.15 | 75 | 1010.7 |
| 20260903180029 | 16 | 184 | 8.0 | 20.9 | 0.00 | 0.15 | 0.15 | 75 | 1010.7 |
| 20260903175528 | 16 | 108 | 6.4 | 17.7 | 0.00 | 0.15 | 0.15 | 76 | 1010.7 |
| 20260903175028 | 16 | 130 | 9.7 | 29.0 | 0.00 | 0.15 | 0.15 | 76 | 1010.3 |
| 20260903174523 | 16 | 103 | 8.0 | 20.9 | 0.00 | 0.15 | 0.15 | 75 | 1010.3 |
| 20260903174018 | 16 | 132 | 6.4 | 29.0 | 0.00 | 0.15 | 0.15 | 76 | 1010.3 |
| 20260903173512 | 16 | 116 | 8.0 | 24.1 | 0.00 | 0.15 | 0.15 | 74 | 1010.3 |
| 20260903173009 | 15 | 158 | 12.9 | 27.4 | 0.00 | 0.15 | 0.15 | 75 | 1010.0 |
| 20260903172503 | 15 | 177 | 16.1 | 24.1 | 0.00 | 0.15 | 0.15 | 76 | 1010.3 |
| 20260903171959 | 16 | 153 | 14.5 | 27.4 | 0.00 | 0.15 | 0.15 | 75 | 1010.3 |
| 20260903171454 | 15 | 111 | 12.9 | 27.4 | 0.00 | 0.15 | 0.15 | 73 | 1010.3 |
| 20260903170948 | 15 | 108 | 4.8 | 22.5 | 0.00 | 0.15 | 0.15 | 74 | 1010.3 |
| 20260903170442 | 15 | 140 | 9.7 | 25.7 | 0.00 | 0.15 | 0.15 | 77 | 1010.0 |
| 20260903165942 | 15 | 173 | 14.5 | 20.9 | 0.00 | 0.15 | 0.15 | 79 | 1010.0 |
| 20260903165436 | 15 | 115 | 17.7 | 20.9 | 0.00 | 0.15 | 0.15 | 78 | 1009.6 |
| 20260903164930 | 15 | 150 | 9.7 | 25.7 | 0.00 | 0.15 | 0.15 | 79 | 1010.0 |
| 20260903164426 | 14 | 118 | 12.9 | 20.9 | 0.00 | 0.15 | 0.15 | 81 | 1009.6 |
| 20260903163925 | 14 | 116 | 8.0 | 17.7 | 0.00 | 0.15 | 0.15 | 81 | 1010.0 |
| 20260903163422 | 14 | 175 | 14.5 | 22.5 | 0.00 | 0.15 | 0.15 | 82 | 1010.0 |
| 20260903162917 | 14 | 201 | 4.8 | 20.9 | 0.00 | 0.15 | 0.15 | 83 | 1010.0 |
| 20260903162414 | 13 | 116 | 11.3 | 20.9 | 0.00 | 0.15 | 0.15 | 83 | 1010.0 |
| 20260903161909 | 13 | 148 | 9.7 | 20.9 | 0.00 | 0.15 | 0.15 | 84 | 1010.0 |
| 20260903161404 | 13 | 157 | 11.3 | 25.7 | 0.00 | 0.15 | 0.15 | 84 | 1010.0 |
| 20260903160901 | 13 | 112 | 14.5 | 24.1 | 0.00 | 0.15 | 0.15 | 84 | 1010.0 |
| 20260903160359 | 13 | 131 | 11.3 | 24.1 | 0.00 | 0.15 | 0.15 | 85 | 1010.0 |
| 20260903155858 | 13 | 128 | 9.7 | 25.7 | 0.00 | 0.15 | 0.15 | 85 | 1010.0 |
| 20260903155353 | 13 | 184 | 14.5 | 17.7 | 0.00 | 0.15 | 0.15 | 86 | 1010.0 |
| 20260903154848 | 13 | 141 | 14.5 | 22.5 | 0.00 | 0.15 | 0.15 | 86 | 1010.0 |
| 20260903154344 | 13 | 186 | 14.5 | 17.7 | 0.00 | 0.15 | 0.15 | 86 | 1010.0 |
| 20260903153839 | 13 | 129 | 8.0 | 20.9 | 0.00 | 0.15 | 0.15 | 86 | 1009.6 |
| 20260903153335 | 13 | 132 | 3.2 | 24.1 | 0.18 | 0.15 | 0.15 | 86 | 1010.0 |
| 20260903152831 | 13 | 166 | 11.3 | 16.1 | 0.18 | 0.15 | 0.15 | 87 | 1010.0 |
| 20260903152327 | 13 | 146 | 4.8 | 24.1 | 0.00 | 0.13 | 0.13 | 87 | 1010.0 |
| 20260903151821 | 12 | 117 | 6.4 | 17.7 | 0.00 | 0.13 | 0.13 | 87 | 1010.0 |
| 20260903151317 | 12 | 147 | 6.4 | 12.9 | 0.00 | 0.13 | 0.13 | 87 | 1010.0 |
| 20260903150812 | 12 | 149 | 9.7 | 16.1 | 0.00 | 0.13 | 0.13 | 87 | 1010.0 |
| 20260903150312 | 12 | 123 | 9.7 | 16.1 | 0.00 | 0.13 | 0.13 | 87 | 1009.6 |
| 20260903145807 | 12 | 137 | 4.8 | 14.5 | 0.00 | 0.13 | 0.13 | 88 | 1010.0 |
| 20260903145305 | 12 | 89 | 9.7 | 12.9 | 0.00 | 0.13 | 0.13 | 87 | 1010.0 |
| 20260903144801 | 12 | 182 | 12.9 | 22.5 | 0.00 | 0.13 | 0.13 | 88 | 1009.6 |
| 20260903144257 | 12 | 182 | 8.0 | 17.7 | 0.00 | 0.13 | 0.13 | 88 | 1010.0 |
| 20260903143752 | 12 | 204 | 9.7 | 16.1 | 0.00 | 0.13 | 0.13 | 89 | 1009.6 |
| 20260903143248 | 12 | 126 | 3.2 | 20.9 | 0.00 | 0.13 | 0.13 | 89 | 1009.6 |
| 20260903142744 | 12 | 125 | 6.4 | 14.5 | 0.00 | 0.13 | 0.13 | 89 | 1010.0 |
| 20260903142240 | 12 | 176 | 3.2 | 16.1 | 0.00 | 0.13 | 0.13 | 89 | 1009.6 |
| 20260903141735 | 12 | 170 | 8.0 | 12.9 | 0.00 | 0.13 | 0.13 | 88 | 1009.6 |
| 20260903141231 | 12 | 125 | 1.6 | 12.9 | 0.00 | 0.13 | 0.13 | 88 | 1009.6 |
| 20260903140726 | 12 | 206 | 6.4 | 20.9 | 0.00 | 0.13 | 0.13 | 88 | 1009.6 |
| 20260903140221 | 12 | 91 | 8.0 | 14.5 | 0.00 | 0.13 | 0.13 | 88 | 1009.6 |
| 20260903135716 | 12 | 169 | 17.7 | 22.5 | 0.00 | 0.13 | 0.13 | 88 | 1009.6 |
| 20260903135212 | 12 | 111 | 12.9 | 25.7 | 0.00 | 0.13 | 0.13 | 87 | 1009.6 |
| 20260903134710 | 12 | 163 | 16.1 | 25.7 | 0.00 | 0.13 | 0.13 | 87 | 1009.6 |
| 20260903134207 | 12 | 168 | 14.5 | 22.5 | 0.00 | 0.13 | 0.13 | 88 | 1009.3 |
| 20260903133704 | 12 | 213 | 6.4 | 14.5 | 0.00 | 0.13 | 0.13 | 89 | 1009.3 |
| 20260903133200 | 12 | 151 | 6.4 | 14.5 | 0.00 | 0.13 | 0.13 | 89 | 1009.3 |
| 20260903132700 | 12 | 172 | 8.0 | 11.3 | 0.00 | 0.13 | 0.13 | 89 | 1009.3 |
| 20260903132154 | 12 | 183 | 9.7 | 14.5 | 0.00 | 0.13 | 0.13 | 90 | 1009.3 |
| 20260903131650 | 12 | 101 | 8.0 | 27.4 | 0.00 | 0.13 | 0.13 | 90 | 1009.3 |
| 20260903131148 | 12 | 147 | 8.0 | 20.9 | 0.00 | 0.13 | 0.13 | 90 | 1009.3 |
| 20260903130644 | 12 | 150 | 8.0 | 22.5 | 0.00 | 0.13 | 0.13 | 91 | 1009.3 |
| 20260903130144 | 12 | 170 | 12.9 | 17.7 | 0.00 | 0.13 | 0.13 | 91 | 1009.0 |
| 20260903125642 | 12 | 200 | 16.1 | 29.0 | 0.00 | 0.13 | 0.13 | 91 | 1009.0 |
| 20260903125138 | 12 | 168 | 6.4 | 22.5 | 0.00 | 0.13 | 0.13 | 91 | 1009.0 |
| 20260903124637 | 12 | 118 | 3.2 | 17.7 | 0.00 | 0.13 | 0.13 | 91 | 1009.0 |
| 20260903124137 | 12 | 180 | 9.7 | 22.5 | 0.13 | 0.13 | 0.13 | 91 | 1009.3 |
| 20260903123631 | 12 | 176 | 9.7 | 22.5 | 0.13 | 0.13 | 0.13 | 91 | 1009.0 |
| 20260903123130 | 12 | 123 | 9.7 | 22.5 | 0.00 | 0.10 | 0.10 | 91 | 1009.0 |
| 20260903122624 | 12 | 178 | 11.3 | 17.7 | 0.18 | 0.10 | 0.10 | 91 | 1009.0 |
| 20260903122119 | 12 | 117 | 9.7 | 22.5 | 0.18 | 0.10 | 0.10 | 91 | 1009.0 |
| 20260903121618 | 12 | 219 | 6.4 | 24.1 | 0.13 | 0.08 | 0.08 | 91 | 1009.0 |
| 20260903121114 | 12 | 143 | 6.4 | 20.9 | 0.00 | 0.08 | 0.08 | 90 | 1009.0 |
| 20260903120613 | 12 | 128 | 14.5 | 20.9 | 0.18 | 0.05 | 0.05 | 90 | 1008.6 |
| 20260903120108 | 12 | 166 | 14.5 | 20.9 | 0.13 | 0.03 | 0.03 | 90 | 1008.6 |
| 20260903115605 | 12 | 193 | 6.4 | 20.9 | 0.13 | 0.03 | 0.03 | 89 | 1008.6 |
| 20260903115101 | 12 | 218 | 6.4 | 22.5 | 0.00 | 0.00 | 0.00 | 89 | 1008.6 |
| 20260903114556 | 12 | 123 | 4.8 | 24.1 | 0.00 | 0.00 | 0.00 | 89 | 1008.6 |
| 20260903114052 | 12 | 179 | 11.3 | 16.1 | 0.00 | 0.00 | 0.00 | 89 | 1008.6 |
| 20260903113547 | 12 | 249 | 8.0 | 27.4 | 0.00 | 0.00 | 0.00 | 89 | 1008.6 |
| 20260903113043 | 12 | 151 | 9.7 | 25.7 | 0.00 | 0.00 | 0.00 | 88 | 1008.6 |
| 20260903112539 | 12 | 173 | 12.9 | 27.4 | 0.00 | 0.00 | 0.00 | 87 | 1008.3 |
| 20260903112034 | 13 | 120 | 3.2 | 17.7 | 0.00 | 0.00 | 0.00 | 85 | 1008.3 |
| 20260903111532 | 13 | 114 | 9.7 | 27.4 | 0.00 | 0.00 | 0.00 | 85 | 1008.3 |
| 20260903111029 | 13 | 167 | 9.7 | 17.7 | 0.00 | 0.00 | 0.00 | 85 | 1008.3 |
| 20260903110525 | 13 | 190 | 8.0 | 16.1 | 0.00 | 0.00 | 0.00 | 84 | 1008.3 |
| 20260903110024 | 13 | 197 | 14.5 | 22.5 | 0.00 | 0.00 | 0.00 | 84 | 1008.3 |
| 20260903105519 | 13 | 116 | 11.3 | 16.1 | 0.00 | 0.00 | 0.00 | 84 | 1008.3 |
| 20260903105014 | 13 | 118 | 9.7 | 17.7 | 0.00 | 0.00 | 0.00 | 84 | 1008.3 |
| 20260903104513 | 13 | 132 | 3.2 | 20.9 | 0.00 | 0.00 | 0.00 | 84 | 1008.3 |
| 20260903104005 | 13 | 108 | 11.3 | 17.7 | 0.00 | 0.00 | 0.00 | 84 | 1007.9 |
| 20260903103500 | 13 | 97 | 6.4 | 11.3 | 0.00 | 0.00 | 0.00 | 84 | 1008.3 |
| 20260903102956 | 13 | 170 | 14.5 | 20.9 | 0.00 | 0.00 | 0.00 | 84 | 1008.6 |
| 20260903102451 | 13 | 113 | 9.7 | 24.1 | 0.00 | 0.00 | 0.00 | 83 | 1008.6 |
| 20260903101949 | 13 | 232 | 14.5 | 20.9 | 0.00 | 0.00 | 0.00 | 83 | 1008.3 |
| 20260903101444 | 13 | 131 | 6.4 | 20.9 | 0.00 | 0.00 | 0.00 | 82 | 1008.3 |
| 20260903100940 | 13 | 168 | 14.5 | 24.1 | 0.00 | 0.00 | 0.00 | 82 | 1008.3 |
| 20260903100435 | 13 | 103 | 16.1 | 27.4 | 0.00 | 0.00 | 0.00 | 81 | 1008.3 |
| 20260903095932 | 13 | 208 | 9.7 | 25.7 | 0.00 | 0.00 | 0.00 | 82 | 1008.3 |
| 20260903095427 | 13 | 195 | 16.1 | 20.9 | 0.00 | 0.00 | 0.00 | 83 | 1008.3 |
| 20260903094922 | 13 | 107 | 6.4 | 17.7 | 0.00 | 0.00 | 0.00 | 83 | 1008.3 |
| 20260903094421 | 13 | 143 | 8.0 | 20.9 | 0.00 | 0.00 | 0.00 | 84 | 1008.3 |
| 20260903093918 | 13 | 196 | 11.3 | 20.9 | 0.00 | 0.00 | 0.00 | 84 | 1007.9 |
| 20260903093418 | 13 | 182 | 12.9 | 20.9 | 0.00 | 0.00 | 0.00 | 84 | 1007.9 |
| 20260903092913 | 13 | 143 | 4.8 | 12.9 | 0.00 | 0.00 | 0.00 | 85 | 1008.3 |
| 20260903092408 | 13 | 220 | 4.8 | 17.7 | 0.00 | 0.00 | 0.00 | 84 | 1008.3 |
| 20260903091907 | 13 | 151 | 9.7 | 16.1 | 0.00 | 0.00 | 0.00 | 84 | 1008.3 |
| 20260903091406 | 13 | 165 | 4.8 | 24.1 | 0.00 | 0.00 | 0.00 | 84 | 1007.9 |
| 20260903090901 | 13 | 174 | 6.4 | 14.5 | 0.00 | 0.00 | 0.00 | 84 | 1007.9 |
| 20260903090356 | 13 | 218 | 8.0 | 25.7 | 0.00 | 0.00 | 0.00 | 84 | 1007.9 |
| 20260903085854 | 13 | 207 | 12.9 | 16.1 | 0.00 | 0.00 | 0.00 | 84 | 1007.9 |
| 20260903085353 | 13 | 196 | 12.9 | 33.8 | 0.00 | 0.00 | 0.00 | 84 | 1007.9 |
| 20260903084853 | 13 | 197 | 14.5 | 22.5 | 0.00 | 0.00 | 0.00 | 84 | 1007.9 |
| 20260903084352 | 13 | 179 | 11.3 | 17.7 | 0.00 | 0.00 | 0.00 | 84 | 1007.9 |
| 20260903083847 | 13 | 149 | 1.6 | 17.7 | 0.00 | 0.00 | 0.00 | 84 | 1007.9 |
| 20260903083343 | 13 | 166 | 6.4 | 14.5 | 0.00 | 0.00 | 0.00 | 85 | 1007.9 |
| 20260903082841 | 13 | 176 | 6.4 | 16.1 | 0.00 | 0.00 | 0.00 | 85 | 1007.9 |
| 20260903082337 | 13 | 113 | 6.4 | 14.5 | 0.00 | 0.00 | 0.00 | 85 | 1007.9 |
| 20260903081832 | 13 | 161 | 4.8 | 22.5 | 0.00 | 0.00 | 0.00 | 85 | 1008.3 |
| 20260903081327 | 13 | 190 | 8.0 | 16.1 | 0.00 | 0.00 | 0.00 | 85 | 1007.9 |
| 20260903080824 | 13 | 140 | 6.4 | 22.5 | 0.00 | 0.00 | 0.00 | 84 | 1007.9 |
| 20260903080321 | 13 | 111 | 9.7 | 17.7 | 0.00 | 0.00 | 0.00 | 85 | 1008.3 |
| 20260903075820 | 13 | 99 | 16.1 | 24.1 | 0.00 | 0.00 | 0.00 | 85 | 1007.9 |
| 20260903075315 | 13 | 173 | 6.4 | 24.1 | 0.00 | 0.00 | 0.00 | 85 | 1008.3 |
| 20260903074815 | 13 | 89 | 17.7 | 24.1 | 0.00 | 0.00 | 0.00 | 85 | 1008.3 |
| 20260903074310 | 13 | 184 | 11.3 | 17.7 | 0.00 | 0.00 | 0.00 | 85 | 1007.9 |
| 20260903073805 | 13 | 111 | 8.0 | 17.7 | 0.00 | 0.00 | 0.00 | 84 | 1007.9 |
| 20260903073300 | 13 | 128 | 3.2 | 6.4 | 0.00 | 0.00 | 0.00 | 85 | 1007.9 |
| 20260903072751 | 13 | 112 | 6.4 | 12.9 | 0.00 | 0.00 | 0.00 | 84 | 1007.9 |
| 20260903072247 | 13 | 109 | 4.8 | 11.3 | 0.00 | 0.00 | 0.00 | 84 | 1007.9 |
| 20260903071743 | 13 | 99 | 6.4 | 16.1 | 0.00 | 0.00 | 0.00 | 83 | 1007.9 |
| 20260903071239 | 13 | 144 | 3.2 | 6.4 | 0.00 | 0.00 | 0.00 | 83 | 1007.9 |
| 20260903070738 | 13 | 103 | 6.4 | 11.3 | 0.00 | 0.00 | 0.00 | 83 | 1007.9 |
| 20260903070234 | 13 | 152 | 3.2 | 11.3 | 0.00 | 0.00 | 0.00 | 83 | 1007.9 |
| 20260903065729 | 13 | 100 | 12.9 | 24.1 | 0.00 | 0.00 | 0.00 | 84 | 1007.9 |
| 20260903065228 | 13 | 164 | 6.4 | 12.9 | 0.00 | 0.00 | 0.00 | 84 | 1007.9 |
| 20260903064727 | 13 | 171 | 14.5 | 22.5 | 0.00 | 0.00 | 0.00 | 84 | 1007.9 |
| 20260903064223 | 13 | 107 | 6.4 | 16.1 | 0.00 | 0.00 | 0.00 | 84 | 1007.9 |
| 20260903063719 | 13 | 207 | 8.0 | 17.7 | 0.00 | 0.00 | 0.00 | 84 | 1007.9 |
| 20260903063213 | 13 | 115 | 6.4 | 16.1 | 0.00 | 0.00 | 0.00 | 86 | 1007.9 |
| 20260903062709 | 13 | 133 | 1.6 | 9.7 | 0.00 | 0.00 | 0.00 | 86 | 1007.9 |
| 20260903062203 | 13 | 214 | 4.8 | 9.7 | 0.00 | 0.00 | 0.00 | 86 | 1007.9 |
| 20260903061700 | 13 | 191 | 1.6 | 6.4 | 0.00 | 0.00 | 0.00 | 86 | 1007.6 |
| 20260903061158 | 13 | 196 | 8.0 | 11.3 | 0.00 | 0.00 | 0.00 | 86 | 1007.9 |
| 20260903060654 | 13 | 135 | 3.2 | 4.8 | 0.00 | 0.00 | 0.00 | 86 | 1007.9 |
| 20260903060149 | 13 | 111 | 3.2 | 6.4 | 0.00 | 0.00 | 0.00 | 86 | 1007.9 |
| 20260903055647 | 13 | 205 | 3.2 | 3.2 | 0.00 | 0.00 | 0.00 | 86 | 1007.9 |
| 20260903055145 | 13 | 128 | 0.0 | 3.2 | 0.00 | 0.00 | 0.00 | 85 | 1007.6 |
| 20260903054640 | 13 | 95 | 3.2 | 6.4 | 0.00 | 0.00 | 0.00 | 85 | 1007.9 |
| 20260903054136 | 13 | 174 | 4.8 | 9.7 | 0.00 | 0.00 | 0.00 | 85 | 1007.6 |
| 20260903053631 | 13 | 200 | 4.8 | 11.3 | 0.00 | 0.00 | 0.00 | 85 | 1007.6 |
| 20260903053126 | 13 | 133 | 3.2 | 20.9 | 0.00 | 0.00 | 0.00 | 85 | 1007.6 |
| 20260903052622 | 13 | 112 | 6.4 | 22.5 | 0.00 | 0.00 | 0.00 | 85 | 1007.6 |
| 20260903052118 | 13 | 164 | 11.3 | 20.9 | 0.00 | 0.00 | 0.00 | 85 | 1007.6 |
| 20260903051618 | 13 | 171 | 6.4 | 20.9 | 0.00 | 0.00 | 0.00 | 85 | 1007.6 |
| 20260903051114 | 13 | 182 | 9.7 | 14.5 | 0.00 | 0.00 | 0.00 | 85 | 1007.6 |
| 20260903050613 | 13 | 113 | 14.5 | 20.9 | 0.00 | 0.00 | 0.00 | 85 | 1007.9 |
| 20260903050108 | 13 | 141 | 3.2 | 9.7 | 0.00 | 0.00 | 0.00 | 84 | 1007.9 |
| 20260903045608 | 13 | 176 | 4.8 | 11.3 | 0.00 | 0.00 | 0.00 | 84 | 1007.6 |
| 20260903045104 | 13 | 174 | 8.0 | 9.7 | 0.00 | 0.00 | 0.00 | 84 | 1007.9 |
| 20260903044600 | 13 | 127 | 8.0 | 12.9 | 0.00 | 0.00 | 0.00 | 84 | 1007.6 |
| 20260903044055 | 13 | 195 | 3.2 | 9.7 | 0.00 | 0.00 | 0.00 | 83 | 1007.9 |
| 20260903043551 | 13 | 126 | 1.6 | 3.2 | 0.00 | 0.00 | 0.00 | 83 | 1007.6 |
| 20260903043050 | 13 | 125 | 3.2 | 9.7 | 0.00 | 0.00 | 0.00 | 83 | 1007.6 |
| 20260903042546 | 13 | 115 | 1.6 | 11.3 | 0.00 | 0.00 | 0.00 | 83 | 1007.6 |
| 20260903042041 | 13 | 172 | 4.8 | 6.4 | 0.00 | 0.00 | 0.00 | 83 | 1007.6 |
| 20260903041538 | 13 | 125 | 1.6 | 3.2 | 0.00 | 0.00 | 0.00 | 83 | 1007.6 |
| 20260903041033 | 13 | 116 | 0.0 | 1.6 | 0.00 | 0.00 | 0.00 | 82 | 1007.6 |
| 20260903040532 | 13 | 113 | 1.6 | 4.8 | 0.00 | 0.00 | 0.00 | 82 | 1007.6 |
| 20260903040029 | 13 | 119 | 0.0 | 1.6 | 0.00 | 0.00 | 0.00 | 82 | 1007.6 |
| 20260903035523 | 13 | 138 | 1.6 | 3.2 | 0.00 | 0.00 | 0.00 | 83 | 1007.3 |
| 20260903035019 | 13 | 96 | 1.6 | 1.6 | 0.00 | 0.00 | 0.00 | 82 | 1007.3 |
| 20260903034514 | 13 | 107 | 0.0 | 4.8 | 0.00 | 0.00 | 0.00 | 81 | 1007.3 |
| 20260903034008 | 13 | 115 | 1.6 | 1.6 | 0.00 | 0.00 | 0.00 | 80 | 1006.9 |
| 20260903033504 | 13 | 114 | 6.4 | 11.3 | 0.00 | 0.00 | 0.00 | 80 | 1006.9 |
| 20260903032958 | 13 | 192 | 1.6 | 3.2 | 0.00 | 0.00 | 0.00 | 80 | 1006.6 |
| 20260903032453 | 13 | 126 | 1.6 | 16.1 | 0.00 | 0.00 | 0.00 | 80 | 1006.6 |
| 20260903031948 | 13 | 122 | 3.2 | 12.9 | 0.00 | 0.00 | 0.00 | 81 | 1006.6 |
| 20260903031442 | 13 | 119 | 3.2 | 4.8 | 0.00 | 0.00 | 0.00 | 81 | 1006.6 |
| 20260903030932 | 13 | 149 | 4.8 | 9.7 | 0.00 | 0.00 | 0.00 | 81 | 1006.3 |
| 20260903030428 | 13 | 110 | 1.6 | 6.4 | 0.00 | 0.00 | 0.00 | 81 | 1006.3 |
| 20260903025924 | 14 | 98 | 1.6 | 4.8 | 0.00 | 0.00 | 0.00 | 81 | 1006.3 |
| 20260903025419 | 14 | 114 | 1.6 | 4.8 | 0.00 | 0.00 | 0.00 | 81 | 1006.3 |
| 20260903024915 | 14 | 141 | 1.6 | 6.4 | 0.00 | 0.00 | 0.00 | 81 | 1006.3 |
| 20260903024408 | 14 | 179 | 6.4 | 11.3 | 0.00 | 0.00 | 0.00 | 81 | 1005.9 |
| 20260903023903 | 14 | 135 | 3.2 | 6.4 | 0.00 | 0.00 | 0.00 | 81 | 1005.9 |
| 20260903023359 | 14 | 128 | 3.2 | 9.7 | 0.00 | 0.00 | 0.00 | 80 | 1005.6 |
| 20260903022854 | 15 | 87 | 4.8 | 11.3 | 0.00 | 0.00 | 0.00 | 80 | 1005.6 |
| 20260903022353 | 15 | 190 | 6.4 | 16.1 | 0.00 | 0.00 | 0.00 | 80 | 1005.2 |
| 20260903021852 | 15 | 19 | 4.8 | 9.7 | 0.00 | 0.00 | 0.00 | 80 | 1005.2 |
| 20260903021348 | 15 | 152 | 12.9 | 24.1 | 0.00 | 0.00 | 0.00 | 79 | 1005.2 |
| 20260903020847 | 15 | 118 | 8.0 | 12.9 | 0.00 | 0.00 | 0.00 | 79 | 1004.9 |
| 20260903020343 | 15 | 179 | 6.4 | 16.1 | 0.00 | 0.00 | 0.00 | 78 | 1005.2 |
| 20260903015837 | 15 | 158 | 8.0 | 33.8 | 0.00 | 0.00 | 0.00 | 78 | 1004.9 |
| 20260903015333 | 15 | 149 | 9.7 | 12.9 | 0.00 | 0.00 | 0.00 | 80 | 1004.9 |
| 20260903014828 | 15 | 166 | 9.7 | 20.9 | 0.00 | 0.00 | 0.00 | 80 | 1004.9 |
| 20260903014327 | 15 | 219 | 8.0 | 30.6 | 0.00 | 0.00 | 0.00 | 81 | 1004.9 |
| 20260903013817 | 15 | 152 | 6.4 | 17.7 | 0.00 | 0.00 | 0.00 | 82 | 1004.6 |
| 20260903013316 | 15 | 131 | 8.0 | 17.7 | 0.00 | 0.00 | 0.00 | 82 | 1004.9 |
| 20260903012815 | 15 | 105 | 8.0 | 33.8 | 0.00 | 0.00 | 0.00 | 81 | 1004.9 |
| 20260903012309 | 15 | 157 | 14.5 | 25.7 | 0.00 | 0.00 | 0.00 | 82 | 1004.6 |
| 20260903011803 | 15 | 103 | 12.9 | 22.5 | 0.00 | 0.00 | 0.00 | 82 | 1004.6 |
| 20260903011303 | 15 | 82 | 12.9 | 29.0 | 0.00 | 0.00 | 0.00 | 82 | 1004.6 |
| 20260903010758 | 15 | 182 | 16.1 | 25.7 | 0.00 | 0.00 | 0.00 | 83 | 1004.6 |
| 20260903010254 | 15 | 144 | 14.5 | 17.7 | 0.00 | 0.00 | 0.00 | 83 | 1004.6 |
| 20260903005752 | 15 | 213 | 14.5 | 27.4 | 0.00 | 0.00 | 0.00 | 82 | 1004.9 |
| 20260903005247 | 15 | 174 | 12.9 | 25.7 | 0.00 | 0.00 | 0.00 | 82 | 1004.9 |
| 20260903004743 | 15 | 110 | 14.5 | 24.1 | 0.00 | 0.00 | 0.00 | 82 | 1004.9 |
| 20260903004238 | 14 | 153 | 12.9 | 27.4 | 0.00 | 0.00 | 0.00 | 83 | 1004.9 |
| 20260903003734 | 14 | 247 | 14.5 | 25.7 | 0.00 | 0.00 | 0.00 | 84 | 1004.9 |
| 20260903003229 | 14 | 103 | 9.7 | 22.5 | 0.00 | 0.00 | 0.00 | 85 | 1004.9 |
| 20260903002723 | 14 | 164 | 17.7 | 25.7 | 0.00 | 0.00 | 0.00 | 85 | 1004.9 |
| 20260903002218 | 13 | 123 | 9.7 | 30.6 | 0.00 | 0.00 | 0.00 | 86 | 1004.6 |
| 20260903001713 | 14 | 126 | 12.9 | 30.6 | 0.00 | 0.00 | 0.00 | 87 | 1004.9 |
| 20260903001207 | 14 | 161 | 6.4 | 17.7 | 0.00 | 0.00 | 0.00 | 86 | 1004.6 |
| 20260903000702 | 14 | 104 | 4.8 | 22.5 | 0.00 | 0.00 | 0.00 | 85 | 1004.9 |
| 20260903000204 | 14 | 128 | 16.1 | 22.5 | 0.00 | 0.00 | 0.00 | 84 | 1004.9 |
| 20260902235700 | 14 | 157 | 8.0 | 22.5 | 0.00 | 0.00 | 0.00 | 85 | 1004.6 |
| 20260902235156 | 14 | 232 | 16.1 | 24.1 | 0.00 | 0.00 | 0.00 | 86 | 1004.6 |
| 20260902234655 | 14 | 215 | 14.5 | 24.1 | 0.00 | 0.00 | 0.00 | 86 | 1004.6 |
| 20260902234154 | 14 | 56 | 17.7 | 30.6 | 0.00 | 0.00 | 0.00 | 86 | 1004.9 |
| 20260902233649 | 14 | 160 | 4.8 | 20.9 | 0.00 | 0.00 | 0.00 | 86 | 1004.6 |
| 20260902233149 | 14 | 191 | 14.5 | 22.5 | 0.00 | 0.00 | 0.00 | 87 | 1004.9 |
| 20260902232648 | 13 | 113 | 6.4 | 20.9 | 0.00 | 0.00 | 0.00 | 87 | 1004.9 |
| 20260902232147 | 13 | 204 | 16.1 | 29.0 | 0.00 | 0.00 | 0.00 | 87 | 1005.2 |
| 20260902231642 | 13 | 184 | 14.5 | 24.1 | 0.00 | 0.00 | 0.00 | 87 | 1004.9 |
| 20260902231137 | 13 | 161 | 20.9 | 29.0 | 0.00 | 0.00 | 0.00 | 87 | 1005.2 |
| 20260902230632 | 13 | 157 | 24.1 | 33.8 | 0.00 | 0.00 | 0.00 | 86 | 1005.2 |
| 20260902230130 | 14 | 178 | 20.9 | 27.4 | 0.00 | 0.00 | 0.00 | 85 | 1005.2 |
| 20260902225626 | 14 | 148 | 8.0 | 25.7 | 0.00 | 0.00 | 0.00 | 84 | 1005.2 |
| 20260902225125 | 15 | 124 | 14.5 | 29.0 | 0.00 | 0.00 | 0.00 | 83 | 1004.9 |
| 20260902224623 | 15 | 158 | 9.7 | 22.5 | 0.00 | 0.00 | 0.00 | 81 | 1005.2 |
| 20260902224120 | 15 | 206 | 16.1 | 30.6 | 0.00 | 0.00 | 0.00 | 80 | 1005.2 |
| 20260902223616 | 15 | 106 | 9.7 | 33.8 | 0.00 | 0.00 | 0.00 | 79 | 1005.2 |
| 20260902223115 | 16 | 218 | 3.2 | 17.7 | 0.00 | 0.00 | 0.00 | 78 | 1005.2 |
| 20260902222614 | 16 | 205 | 6.4 | 29.0 | 0.00 | 0.00 | 0.00 | 76 | 1005.2 |
| 20260902222113 | 16 | 115 | 9.7 | 29.0 | 0.00 | 0.00 | 0.00 | 75 | 1005.2 |
| 20260902221607 | 16 | 207 | 4.8 | 24.1 | 0.00 | 0.00 | 0.00 | 74 | 1005.2 |
| 20260902221102 | 16 | 130 | 9.7 | 30.6 | 0.00 | 0.00 | 0.00 | 74 | 1005.2 |
| 20260902220557 | 16 | 147 | 20.9 | 51.5 | 0.00 | 0.00 | 0.00 | 74 | 1005.2 |
| 20260902220052 | 16 | 241 | 22.5 | 35.4 | 0.00 | 0.00 | 0.00 | 75 | 1005.2 |
| 20260902215548 | 16 | 218 | 16.1 | 29.0 | 0.00 | 0.00 | 0.00 | 74 | 1004.9 |
| 20260902215043 | 16 | 192 | 14.5 | 20.9 | 0.00 | 0.00 | 0.00 | 75 | 1005.2 |
| 20260902214538 | 17 | 203 | 22.5 | 33.8 | 0.00 | 0.00 | 0.00 | 74 | 1005.2 |
| 20260902214037 | 17 | 151 | 9.7 | 29.0 | 0.00 | 0.00 | 0.00 | 73 | 1005.2 |
| 20260902213533 | 17 | 190 | 1.6 | 30.6 | 0.00 | 0.00 | 0.00 | 75 | 1005.2 |
| 20260902213032 | 17 | 119 | 17.7 | 30.6 | 0.00 | 0.00 | 0.00 | 75 | 1005.6 |
| 20260902212528 | 17 | 131 | 9.7 | 17.7 | 0.00 | 0.00 | 0.00 | 76 | 1005.2 |
| 20260902212024 | 17 | 147 | 19.3 | 38.6 | 0.00 | 0.00 | 0.00 | 77 | 1005.2 |
| 20260902211520 | 17 | 108 | 17.7 | 29.0 | 0.00 | 0.00 | 0.00 | 75 | 1005.2 |
| 20260902211015 | 18 | 117 | 11.3 | 20.9 | 0.00 | 0.00 | 0.00 | 72 | 1005.6 |
| 20260902210514 | 17 | 26 | 9.7 | 25.7 | 0.00 | 0.00 | 0.00 | 72 | 1005.6 |
| 20260902210014 | 17 | 193 | 9.7 | 14.5 | 0.00 | 0.00 | 0.00 | 72 | 1005.2 |